Wind_Speed
46 45 45 44 44 44 44 44 44 44 42 41 42 42 43 43 42 43 42 42 41 42 42 42 43 44 44 44 45 45 46 46 46 47 47 47 48 48
47 46 46 46 45 45 45 45 45 44 44 43 43 43 44 45 44 45 45 44 44 44 44 45 45 45 45 46 46 47 48 48 49 50 49 50 51 51
49 48 47 47 47 47 47 46 45 45 45 45 45 45 46 46 46 45 46 46 46 46 46 47 47 46 46 47 48 49 49 50 51 51 51 52 53 53
49 48 48 48 48 49 48 48 48 48 48 47 47 47 47 47 47 46 46 47 46 47 47 47 48 48 47 48 49 51 52 52 53 54 55 55 55 56
49 49 49 49 49 49 49 49 49 49 49 49 49 49 49 49 48 49 49 48 48 48 49 49 49 49 49 50 51 52 53 54 54 56 57 57 57 57
48 49 49 50 50 50 50 50 50 49 49 49 49 49 49 50 50 51 51 50 50 50 51 51 51 51 52 53 54 55 55 56 57 58 58 59 59 59
48 49 49 50 51 51 51 51 51 50 49 50 50 50 50 50 50 51 51 51 51 51 52 52 53 54 55 56 57 57 58 58 59 59 60 60 60 59
50 50 49 50 50 51 52 52 52 51 50 50 50 50 51 51 51 51 51 52 52 52 53 54 55 56 57 58 58 59 59 60 60 60 60 59 60 59
50 50 51 51 52 52 53 53 53 52 52 51 51 51 50 51 51 52 52 53 53 54 55 55 57 57 58 58 58 59 59 60 60 59 59 59 59 58
50 51 51 52 52 53 53 54 54 54 53 53 52 52 51 51 52 53 53 54 54 55 56 56 56 58 58 58 59 59 59 59 59 59 58 58 58 58
51 51 51 52 52 52 52 53 53 53 53 53 53 53 52 52 53 53 54 54 54 54 55 56 56 57 56 56 57 57 58 58 58 58 58 57 57 57
50 50 50 50 51 51 51 52 53 52 53 53 53 53 54 54 54 54 55 55 55 55 56 56 56 56 55 54 55 56 57 57 57 57 57 57 56 56
49 49 49 50 50 51 52 52 52 53 53 53 54 54 54 55 55 55 55 56 56 56 56 56 55 55 55 54 54 55 55 56 56 56 55 55 55 55
47 47 48 49 49 50 51 51 52 53 53 53 53 54 54 55 56 56 56 56 56 56 56 55 55 56 56 56 56 55 55 56 56 55 54 54 54 53
46 47 48 48 48 48 49 50 51 51 52 53 53 53 54 55 56 56 56 56 56 56 56 56 57 57 57 57 56 56 55 54 54 54 54 53 53 53
46 47 47 48 48 48 49 50 50 51 51 52 52 53 54 54 54 54 55 55 55 55 56 56 56 56 56 56 56 55 54 54 53 53 53 53 53 52
45 46 47 48 48 49 49 49 49 49 50 51 52 52 52 52 53 53 53 53 54 54 54 54 54 54 54 54 54 53 53 52 52 51 50 50 50 49
44 45 46 46 47 48 48 48 48 49 49 49 50 50 50 50 50 51 51 52 52 52 52 52 52 52 52 51 51 51 50 49 48 48 47 47 46 45
44 45 45 45 46 47 48 48 48 48 48 48 48 48 48 48 48 49 49 50 50 50 50 50 50 50 49 48 48 48 46 45 44 44 44 43 42 41
44 44 44 45 45 46 46 47 47 47 47 47 47 47 47 48 48 48 48 48 48 48 48 48 48 47 47 46 45 44 44 43 42 42 41 41 40 40
42 43 44 44 44 44 44 45 45 46 46 46 46 46 47 47 47 47 47 47 47 47 46 46 45 45 44 44 43 42 42 42 41 40 39 38 37 37
41 42 42 42 43 43 43 44 44 45 45 45 45 46 46 46 46 46 45 45 45 44 43 42 42 41 41 41 40 39 39 39 38 38 37 37 36 36
39 39 40 40 41 41 42 43 43 44 44 44 44 45 45 44 44 44 43 43 42 42 41 40 39 39 39 39 38 37 37 36 35 35 36 37 37 36
Wind_Direction
252 254 254 253 254 256 257 258 258 258 258 260 264 263 264 267 268 269 270 272 273 274 275 277 278 278 279 280 281 281 282 283 284 284 285 285 286 287
252 254 255 254 254 256 257 257 256 256 259 261 262 263 264 266 269 269 270 271 272 274 276 277 278 279 280 281 281 281 282 283 283 283 284 284 285 287
252 253 255 255 256 257 256 255 256 258 260 261 262 263 264 266 268 269 270 271 272 274 276 278 279 280 280 280 281 281 282 282 283 283 284 284 285 286
253 254 254 255 256 256 257 256 258 259 261 261 262 262 264 266 268 269 271 272 273 274 276 278 279 279 279 281 282 282 282 283 284 283 284 284 286 286
253 254 255 255 256 257 257 258 259 261 262 262 262 263 265 265 267 268 270 271 273 274 275 277 278 278 279 281 283 283 283 284 284 284 285 285 286 287
254 254 255 255 256 257 258 260 261 262 263 263 264 264 265 266 267 268 269 270 272 273 275 276 277 278 280 282 283 284 284 284 284 285 285 285 286 287
255 255 256 257 257 257 258 259 260 262 263 264 264 265 265 266 267 269 270 271 272 274 275 276 277 278 280 282 283 284 284 284 285 285 285 286 286 286
255 256 256 257 259 259 258 259 260 262 264 264 265 265 265 266 268 270 271 271 273 274 276 277 278 279 281 282 283 283 284 284 285 286 286 285 286 286
255 257 257 258 260 260 260 260 260 262 264 266 265 265 267 268 269 270 272 273 275 276 277 278 279 280 281 282 283 283 284 284 285 285 285 285 285 286
257 258 259 260 261 261 260 260 261 262 265 267 267 267 268 269 270 271 273 275 276 278 279 280 281 282 282 282 282 283 284 284 284 284 285 285 286 286
257 258 259 260 261 261 260 260 261 263 265 268 268 268 269 271 272 273 275 276 277 279 280 281 281 281 282 283 283 284 284 285 285 285 286 286 286 286
257 258 259 260 260 260 260 260 261 263 266 267 268 270 270 272 273 274 276 277 278 279 280 280 281 281 282 282 283 284 284 285 286 286 286 287 287 287
257 257 258 259 260 261 261 261 263 264 266 267 269 270 271 272 274 275 277 278 279 280 281 281 281 282 283 283 283 284 284 285 286 286 287 287 288 288
257 258 259 259 260 262 262 263 264 265 266 268 270 271 272 273 274 276 277 278 278 280 280 281 282 283 283 284 284 285 285 286 286 287 287 287 287 287
259 259 260 260 262 263 264 266 266 266 267 269 270 272 273 274 275 275 276 278 279 280 281 282 283 284 284 285 285 286 286 286 286 286 286 286 286 287
261 262 262 263 263 264 266 267 267 268 269 270 271 273 274 274 275 276 277 278 280 281 282 283 284 285 286 286 287 287 287 287 286 285 285 286 287 288
263 264 263 263 264 265 266 267 269 270 271 272 273 274 275 275 276 276 277 279 280 281 282 283 285 286 287 287 288 288 288 287 287 286 286 286 287 288
264 264 264 264 265 266 267 268 269 270 271 273 273 274 275 275 276 277 278 279 281 282 283 284 285 286 286 287 288 289 289 288 287 286 286 287 287 287
264 265 266 267 267 267 267 268 269 270 271 272 273 273 274 275 276 277 278 280 281 282 282 283 284 284 285 286 286 287 287 286 286 286 286 287 287 286
265 266 267 268 268 268 268 268 268 269 270 271 273 274 275 276 277 278 279 280 281 282 282 283 283 284 285 285 285 286 286 285 285 285 286 287 287 287
266 267 268 268 269 269 268 268 268 269 270 271 273 274 275 277 277 279 279 280 280 281 282 282 282 283 284 285 285 285 285 284 285 286 287 287 287 287
266 267 268 268 268 268 268 268 268 269 270 271 272 274 275 277 277 279 279 279 279 281 282 282 283 283 285 285 285 285 285 285 286 287 289 289 289 288
267 268 269 269 268 268 268 268 268 268 270 270 271 273 275 276 277 277 278 278 278 279 280 281 282 283 285 285 285 286 285 284 284 286 289 290 290 289
Height
5740 5742 5744 5746 5748 5750 5751 5753 5755 5756 5757 5758 5759 5760 5760 5760 5760 5761 5761 5761 5760 5760 5759 5758 5757 5756 5755 5753 5752 5751 5749 5747 5746 5744 5742 5739 5737 5735
5730 5732 5734 5736 5738 5739 5741 5743 5745 5746 5748 5749 5750 5750 5750 5750 5751 5751 5751 5751 5751 5750 5749 5748 5747 5746 5744 5743 5741 5739 5738 5736 5734 5732 5730 5728 5725 5722
5719 5721 5723 5725 5727 5729 5731 5732 5734 5736 5737 5738 5739 5739 5740 5740 5740 5740 5740 5740 5740 5739 5738 5737 5736 5734 5732 5731 5729 5728 5726 5724 5722 5720 5717 5715 5712 5709
5707 5710 5712 5714 5717 5719 5720 5722 5723 5725 5726 5727 5728 5728 5728 5729 5729 5729 5729 5728 5728 5728 5726 5725 5724 5722 5721 5719 5717 5715 5713 5711 5709 5706 5704 5701 5698 5694
5696 5698 5701 5703 5705 5708 5709 5711 5712 5713 5714 5715 5716 5717 5717 5717 5718 5718 5717 5717 5716 5715 5714 5713 5712 5710 5708 5706 5704 5702 5700 5697 5695 5692 5689 5686 5683 5679
5684 5687 5689 5691 5694 5696 5698 5699 5700 5701 5702 5703 5704 5705 5706 5706 5706 5706 5706 5705 5705 5704 5702 5701 5699 5697 5695 5693 5690 5687 5685 5682 5679 5676 5673 5670 5667 5663
5672 5674 5676 5679 5681 5684 5686 5687 5689 5689 5690 5691 5692 5693 5693 5694 5694 5694 5693 5693 5692 5691 5689 5688 5686 5684 5681 5678 5675 5672 5670 5667 5664 5660 5657 5654 5650 5647
5660 5662 5664 5667 5669 5671 5673 5675 5676 5677 5678 5678 5680 5680 5681 5681 5682 5681 5680 5680 5680 5678 5676 5674 5672 5670 5667 5664 5660 5656 5654 5651 5647 5644 5640 5637 5633 5630
5647 5650 5652 5655 5656 5658 5660 5662 5664 5665 5666 5667 5667 5668 5669 5669 5669 5668 5667 5666 5665 5664 5662 5660 5657 5654 5651 5648 5644 5640 5637 5634 5631 5627 5624 5620 5617 5613
5635 5637 5639 5641 5643 5645 5647 5649 5651 5652 5653 5654 5655 5655 5655 5655 5655 5654 5653 5652 5651 5649 5646 5645 5642 5639 5636 5632 5628 5624 5621 5618 5614 5611 5607 5604 5600 5597
5622 5624 5626 5628 5630 5632 5634 5636 5638 5639 5639 5640 5641 5641 5641 5640 5640 5639 5639 5637 5636 5634 5631 5629 5627 5624 5621 5617 5613 5609 5605 5601 5598 5595 5591 5587 5584 5580
5609 5611 5613 5615 5616 5618 5620 5622 5623 5625 5626 5626 5626 5626 5626 5626 5625 5625 5624 5622 5620 5619 5616 5614 5611 5607 5607 5604 5599 5594 5590 5586 5582 5579 5575 5571 5567 5564
5595 5597 5600 5601 5603 5604 5606 5608 5610 5611 5611 5612 5612 5612 5611 5611 5610 5609 5608 5606 5605 5603 5601 5598 5596 5592 5589 5588 5585 5580 5575 5571 5567 5563 5559 5555 5551 5547
5582 5584 5586 5588 5589 5591 5592 5594 5595 5596 5596 5597 5597 5597 5597 5596 5595 5594 5592 5591 5589 5587 5585 5582 5580 5577 5573 5571 5569 5565 5561 5556 5552 5548 5544 5540 5536 5532
5569 5571 5573 5574 5576 5577 5578 5579 5580 5581 5582 5582 5583 5583 5582 5581 5580 5579 5577 5575 5573 5571 5569 5566 5564 5561 5557 5554 5552 5549 5545 5542 5537 5533 5529 5525 5521 5518
5555 5557 5559 5560 5562 5563 5564 5565 5566 5567 5567 5568 5568 5568 5567 5566 5565 5563 5562 5561 5559 5556 5553 5550 5548 5545 5542 5538 5535 5533 5529 5525 5522 5518 5514 5510 5507 5503
5542 5543 5545 5546 5548 5549 5551 5551 5552 5552 5553 5553 5553 5553 5552 5551 5550 5548 5547 5545 5544 5542 5539 5536 5532 5529 5526 5523 5521 5517 5513 5510 5506 5502 5499 5496 5493 5489
5529 5530 5532 5533 5534 5536 5537 5537 5538 5538 5538 5538 5538 5538 5537 5536 5535 5534 5532 5531 5529 5527 5524 5521 5518 5515 5512 5509 5506 5502 5499 5495 5491 5488 5484 5482 5480 5476
5516 5518 5519 5519 5520 5521 5522 5523 5523 5524 5524 5524 5524 5523 5523 5522 5521 5520 5518 5516 5514 5512 5509 5507 5504 5501 5499 5497 5494 5489 5485 5482 5479 5476 5472 5469 5467 5464
5504 5505 5506 5506 5506 5507 5508 5509 5509 5510 5510 5510 5510 5510 5509 5508 5507 5506 5504 5502 5500 5498 5496 5493 5490 5487 5485 5483 5480 5477 5472 5469 5466 5463 5461 5457 5455 5452
5491 5492 5493 5493 5493 5494 5494 5495 5495 5496 5497 5497 5497 5496 5496 5494 5493 5492 5490 5489 5486 5484 5482 5480 5477 5474 5471 5469 5467 5465 5461 5457 5454 5451 5448 5446 5444 5441
5479 5479 5480 5480 5480 5481 5481 5481 5482 5483 5483 5484 5483 5483 5482 5481 5480 5479 5477 5475 5474 5472 5470 5467 5465 5462 5460 5457 5455 5453 5450 5446 5443 5440 5437 5434 5431 5429
5467 5467 5467 5467 5468 5468 5468 5469 5469 5470 5470 5471 5470 5470 5469 5468 5467 5466 5464 5463 5461 5459 5457 5456 5453 5451 5449 5446 5444 5441 5439 5436 5433 5431 5428 5424 5421 5418